Location: Unspecified
(34.7051°N, 0.0000°E)
Time: 03:23:46
(UTC+00:00)

Altair 2 - Visible Passes

Search period start: 04 April 2026 00:00
Search period end: 14 April 2026 00:00
Orbit: 829 x 884 km, 90.4° (Epoch: 29 March)

Date Brightness Start Highest point End Pass type
(mag) Time Alt. Az. Time Alt. Az. Time Alt. Az.
4 Apr 10.9 22:32:49 12° N 22:32:49 12° N 22:33:10 10° N visible
5 Apr 10.9 22:22:34 13° N 22:22:34 13° N 22:23:04 10° N visible
6 Apr 10.8 22:12:18 13° N 22:12:18 13° N 22:12:56 10° N visible
7 Apr 10.7 22:02:02 14° NNE 22:02:02 14° NNE 22:02:48 10° NNE visible
8 Apr 10.6 21:51:46 14° NNE 21:51:46 14° NNE 21:52:39 10° NNE visible
9 Apr 10.5 21:41:29 15° NNE 21:41:29 15° NNE 21:42:27 10° NNE visible
9 Apr 11.0 23:23:36 12° NNW 23:23:36 12° NNW 23:24:00 10° NNW visible
10 Apr 10.5 21:31:13 15° NNE 21:31:13 15° NNE 21:32:14 10° NNE visible
10 Apr 10.9 23:13:19 14° NNW 23:13:19 14° NNW 23:14:08 10° NNW visible
11 Apr 10.4 21:20:56 14° NNE 21:20:56 14° NNE 21:21:59 10° NNE visible
11 Apr 10.8 23:03:02 16° NNW 23:03:02 16° NNW 23:04:14 10° NNW visible
12 Apr 10.4 21:10:38 14° NE 21:10:38 14° NE 21:11:42 10° NNE visible
12 Apr 10.6 22:52:45 18° NNW 22:52:45 18° NNW 22:54:18 10° NNW visible
13 Apr 10.4 21:00:20 13° NE 21:00:20 13° NE 21:01:21 10° NNE visible
13 Apr 10.5 22:42:27 21° NNW 22:42:27 21° NNW 22:44:21 10° NNW visible
